Regional Weather Roundup
Issued by NWS Little Rock, AR

Home | Current Version | Previous Version | Text Only | Print | Product List | Glossary On
Versions: 1 2 3 4 5 6 7 8 9 10 11 12 13 14 15 16 17 18 19 20 21 22 23 24 25 26 27 28 29 30 31 32
000
ASUS44 KLZK 261214
RWRLZK

WEATHER ROUNDUP FOR ARKANSAS
NATIONAL WEATHER SERVICE LITTLE ROCK AR
700 AM CDT MON SEP 26 2016

NOTE: "FAIR" INDICATES FEW OR NO CLOUDS BELOW 12,000 FEET WITH NO
SIGNIFICANT WEATHER AND/OR OBSTRUCTIONS TO VISIBILITY.

ARZ001-003-010-029-261300-
NORTHWEST ARKANSAS

CITY           SKY/WX    TMP DP  RH WIND       PRES   REMARKS
FAYETTEVILLE   CLOUDY    58  58 100 NE3       30.21S
6HR MIN TEMP:  58; 6HR MAX TEMP:  63;

FORT SMITH     LGT RAIN  65  56  72 NE6       30.17S
6HR MIN TEMP:  64; 6HR MAX TEMP:  71; 6HR PCP: TRACE;

HARRISON       CLOUDY    58  57  97 NW5       30.21S
6HR MIN TEMP:  58; 6HR MAX TEMP:  63; 6HR PCP:  0.05;

BENTONVILLE    CLOUDY    57  52  82 N6        30.22R
6HR MIN TEMP:  57; 6HR MAX TEMP:  61; 6HR PCP:  0.04;

ROGERS         MOCLDY    57  56  96 N3        30.23S
6HR MIN TEMP:  57; 6HR MAX TEMP:  60;

SILOAM SPGS    CLOUDY   N/A N/A N/A N3          N/A
                                      6HR PCP:  0.02;

HIGHFILL       CLOUDY    58  57  97 N5        30.22R
6HR MIN TEMP:  58; 6HR MAX TEMP:  61; 6HR PCP:  0.04;

SPRINGDALE     CLOUDY    59  57  94 NE5       30.23S
$$

ARZ004-005-016-261300-
NORTH CENTRAL ARKANSAS

CITY           SKY/WX    TMP DP  RH WIND       PRES   REMARKS
BATESVILLE     PTCLDY    63  54  72 N6        30.16R
6HR MIN TEMP:  63; 6HR MAX TEMP:  73;

FLIPPIN        CLOUDY    61  54  77 N3        30.18R
6HR MIN TEMP:  61; 6HR MAX TEMP:  70; 6HR PCP:  0.12;

MTN HOME       LGT RAIN  58  57  97 CALM      30.19R
6HR MIN TEMP:  58; 6HR MAX TEMP:  68; 6HR PCP:  0.13;

$$

ARZ040-041-261300-
WEST CENTRAL ARKANSAS

CITY           SKY/WX    TMP DP  RH WIND       PRES   REMARKS
MENA           CLOUDY    70  66  88 CALM      30.15S
MOUNT IDA      CLOUDY    70  63  78 CALM      30.12R
6HR MIN TEMP:  71; 6HR MAX TEMP:  73;

$$

ARZ009-017-025-026-028-261300-
NORTHEAST ARKANSAS

CITY           SKY/WX    TMP DP  RH WIND       PRES   REMARKS
CORNING          N/A     64  55  72 N9        30.15R
JONESBORO      CLOUDY    67  57  70 N7G17     30.12R
6HR MIN TEMP:  67; 6HR MAX TEMP:  79;

NEWPORT        CLOUDY    65  58  78 N10       30.14R
6HR MIN TEMP:  64; 6HR MAX TEMP:  75;

WALNUT RIDGE   MOCLDY    64  52  63 N13       30.14R
6HR MIN TEMP:  64; 6HR MAX TEMP:  73;

BLYTHEVILLE    LGT RAIN  63  60  90 NE15G21   30.12R
6HR MIN TEMP:  62; 6HR MAX TEMP:  78; 6HR PCP:  1.08;

$$

ARZ022-023-033-042-044-261300-
CENTRAL ARKANSAS

CITY           SKY/WX    TMP DP  RH WIND       PRES   REMARKS
LITTLE ROCK    CLOUDY    71  59  65 N13       30.13R
6HR MIN TEMP:  71; 6HR MAX TEMP:  80;

N LITTLE ROCK    N/A     66  59  77 N8        30.10R
6HR MIN TEMP:  66; 6HR MAX TEMP:  76;

JACKSONVILLE   MOCLDY    69  60  73 N10       30.13R
6HR MIN TEMP:  69; 6HR MAX TEMP:  76;

SEARCY         CLOUDY    66  56  70 N15       30.15R
6HR MIN TEMP:  66; 6HR MAX TEMP:  76;

HOT SPRINGS    MOCLDY    71  61  70 N7        30.11R
6HR MIN TEMP:  71; 6HR MAX TEMP:  75;

RUSSELLVILLE   CLOUDY    66  55  67 N7        30.15R
6HR MIN TEMP:  66; 6HR MAX TEMP:  76;

$$

ARZ036-261300-
EAST ARKANSAS

CITY           SKY/WX    TMP DP  RH WIND       PRES   REMARKS
WEST MEMPHIS   CLOUDY    68  61  78 N20G26    30.09R
6HR MIN TEMP:  68; 6HR MAX TEMP:  78;

$$

ARZ050-053-066-070-073-261300-
SOUTHWEST ARKANSAS

CITY           SKY/WX    TMP DP  RH WIND       PRES   REMARKS
ARKADELPHIA    PTSUNNY   72  69  90 NE8       30.09R
6HR MIN TEMP:  70; 6HR MAX TEMP:  75;

TEXARKANA      PTCLDY    71  69  93 NE5       30.06R
6HR MIN TEMP:  71; 6HR MAX TEMP:  75;

EL DORADO      CLEAR     71  70  96 N7        30.06R
6HR MIN TEMP:  70; 6HR MAX TEMP:  72;

DE QUEEN       CLOUDY    71  64  78 NE7       30.07R
6HR MIN TEMP:  71; 6HR MAX TEMP:  76;

$$

ARZ056-057-069-261300-
SOUTHEAST ARKANSAS

CITY           SKY/WX    TMP DP  RH WIND       PRES   REMARKS
PINE BLUFF     CLOUDY    73  67  81 N16G25    30.08R
6HR MIN TEMP:  72; 6HR MAX TEMP:  75; 6HR PCP:  0.13;

STUTTGART      CLOUDY    70  57  64 N16G24    30.10R
6HR MIN TEMP:  70; 6HR MAX TEMP:  77;

MONTICELLO     CLOUDY    74  70  87 N6        30.06R
6HR MIN TEMP:  72; 6HR MAX TEMP:  76;


$$






USA.gov is the U.S. government's official web portal to all federal, state and local government web resources and services.